Location: Unspecified
(43.4680°N, 87.1740°E)
Time: 19:57:47
(UTC+00:00)

CZ-2D R/B - Pass Details

Date: 17 April 2021
Orbit: 792 x 844 km, 98.7° (Epoch: 11 May)

Event Time Altitude Azimuth Distance (km) Brightness Sun altitude
Rises 21:08:59 0° 1° (N) 3,412 6.0 -22.3°
Reaches altitude 10° 21:11:50 10° 347° (NNW) 2,474 5.0 -21.9°
Maximum altitude 21:15:55 22° 299° (WNW) 1,773 3.7 -21.3°
Enters shadow 21:16:36 21° 288° (WNW) 1,796 3.6 -21.2°
